BMCB-13 Weather Reports


time (UTC)temp
C
wind
direction
speed
KPH
gust
KPH
rain 1hr
cm
rain 24hr
cm
rain mn
cm
humidity
%
barometer
mb
20260506214049 8 353 3.2 8.0 0.00 1.83 1.78 96 1010.9
20260506212050 8 356 3.2 8.0 0.00 1.83 1.78 96 1010.8
20260506211050 8 353 4.8 11.3 0.00 1.85 1.78 96 1010.8
20260506210049 8 355 4.8 8.0 0.00 1.88 1.78 95 1010.9
20260506204048 8 359 4.8 8.0 0.00 1.93 1.78 95 1010.8
20260506203050 8 9 3.2 9.7 0.00 1.93 1.78 95 1010.7
20260506202051 8 2 4.8 9.7 0.00 1.96 1.78 95 1010.7
20260506201051 8 6 3.2 9.7 0.00 1.98 1.78 95 1010.7
20260506194052 8 4 3.2 9.7 0.00 2.03 1.78 94 1010.4
20260506193050 8 5 4.8 11.3 0.00 2.06 1.78 94 1010.3
20260506192047 8 10 3.2 9.7 0.00 2.08 1.78 94 1010.2
20260506191049 8 157 4.8 11.3 0.00 2.11 1.78 94 1010.1
20260506190051 8 10 4.8 9.7 0.00 2.11 1.78 94 1010.0
20260506185049 8 26 4.8 12.9 0.00 2.13 1.78 94 1010.0
20260506183050 8 9 4.8 9.7 0.00 2.16 1.78 94 1009.8
20260506182049 8 5 4.8 12.9 0.00 2.18 1.78 93 1009.6
20260506181046 9 2 4.8 11.3 0.00 2.21 1.78 91 1009.5
20260506180048 9 356 3.2 8.0 0.00 2.21 1.78 90 1009.4
20260506175050 9 3 3.2 6.4 0.00 2.21 1.78 90 1009.3
20260506174048 9 358 3.2 6.4 0.00 2.21 1.78 91 1009.1
20260506173047 9 9 3.2 8.0 0.00 2.21 1.78 92 1009.1
20260506170045 9 1 3.2 8.0 0.00 2.21 1.78 91 1008.9
20260506165045 9 1 3.2 6.4 0.00 2.21 1.78 90 1008.9
20260506164046 10 186 3.2 8.0 0.00 2.21 1.78 91 1008.8
20260506163046 10 2 3.2 9.7 0.00 2.21 1.78 91 1008.7
20260506162049 10 3 4.8 9.7 0.00 2.21 1.78 90 1008.7
20260506161046 10 7 4.8 17.7 0.00 2.21 1.78 91 1008.7
20260506160046 10 359 6.4 14.5 0.00 2.21 1.78 90 1008.6
20260506155046 10 9 6.4 14.5 0.00 2.21 1.78 90 1008.6
20260506154052 10 11 6.4 17.7 0.00 2.21 1.78 90 1008.5
20260506153046 10 21 8.0 16.1 0.00 2.21 1.78 90 1008.5
20260506152048 10 274 8.0 16.1 0.00 2.21 1.78 91 1008.4
20260506151047 10 10 6.4 16.1 0.00 2.21 1.78 91 1008.4
20260506145048 10 11 8.0 17.7 0.00 2.21 1.78 91 1008.4
20260506144046 10 263 8.0 16.1 0.00 2.21 1.78 92 1008.3
20260506143046 10 6 6.4 16.1 0.00 2.21 1.78 92 1008.3
20260506142046 10 16 6.4 12.9 0.03 2.21 1.78 94 1008.4
20260506141047 10 304 6.4 16.1 0.03 2.21 1.78 94 1008.4
20260506140051 10 14 6.4 12.9 0.03 2.21 1.78 96 1008.4
20260506135047 9 15 6.4 16.1 0.03 2.21 1.78 96 1008.4
20260506134047 9 306 4.8 12.9 0.03 2.21 1.78 97 1008.4
20260506133048 9 10 6.4 17.7 0.03 2.21 1.78 98 1008.4
20260506131048 9 23 8.0 20.9 0.03 2.18 1.75 96 1008.3
20260506130045 10 57 6.4 14.5 0.05 2.18 1.75 96 1008.1
20260506125045 10 51 8.0 14.5 0.05 2.18 1.75 96 1008.0
20260506124047 10 11 6.4 19.3 0.05 2.18 1.75 95 1007.9
20260506123046 10 5 8.0 16.1 0.05 2.18 1.75 97 1007.8
20260506122046 10 26 8.0 20.9 0.05 2.18 1.75 96 1007.8
20260506120044 10 337 6.4 14.5 0.05 2.16 1.75 96 1007.5
20260506115045 10 332 6.4 12.9 0.05 2.13 1.73 96 1007.4
20260506112048 10 331 6.4 14.5 0.05 2.11 1.70 95 1007.4
20260506111048 10 1 6.4 12.9 0.08 2.11 1.70 95 1007.3
20260506110045 11 25 6.4 12.9 0.05 2.11 1.68 96 1007.3
20260506105046 10 248 6.4 14.5 0.08 2.11 1.68 96 1007.3
20260506104044 10 340 4.8 12.9 0.05 2.08 1.65 97 1007.4
20260506103048 10 339 4.8 12.9 0.08 2.08 1.65 98 1007.3
20260506102046 10 337 4.8 11.3 0.08 2.08 1.65 98 1007.2
20260506101045 10 342 4.8 12.9 0.05 2.06 1.65 98 1007.2
20260506100044 10 333 4.8 11.3 0.05 2.03 1.63 98 1007.1
20260506095047 10 339 4.8 9.7 0.08 2.03 1.63 98 1007.1
20260506094044 10 352 4.8 12.9 0.08 2.03 1.60 98 1007.0
20260506093045 10 349 4.8 9.7 0.10 2.03 1.60 99 1007.0
20260506092046 9 358 4.8 14.5 0.10 2.01 1.57 99 1006.9
20260506090045 9 344 4.8 11.3 0.13 2.01 1.57 99 1006.8
20260506085047 8 349 4.8 9.7 0.13 1.98 1.55 10 1006.8
20260506083043 8 97 6.4 16.1 0.13 1.93 1.52 10 1006.6
20260506082045 8 348 4.8 9.7 0.15 1.93 1.50 10 1006.5
20260506081044 8 206 4.8 12.9 0.13 1.91 1.47 10 1006.4
20260506073044 8 12 4.8 12.9 0.10 1.83 1.42 10 1006.1
20260506071044 8 344 4.8 14.5 0.05 1.78 1.37 10 1006.0
20260506062045 8 344 4.8 9.7 0.08 1.75 1.32 10 1005.7
20260506061043 8 337 4.8 11.3 0.10 1.73 1.30 10 1005.7
20260506051044 8 349 3.2 9.7 0.15 1.65 1.24 10 1005.7
20260506045042 8 351 4.8 9.7 0.13 1.57 1.17 10 1005.7
20260506044044 8 348 4.8 14.5 0.13 1.55 1.14 10 1005.7
20260506043046 8 96 3.2 11.3 0.13 1.55 1.12 10 1005.7
20260506042043 8 344 4.8 12.9 0.15 1.52 1.09 10 1005.6
20260506040046 8 109 4.8 11.3 0.20 1.50 1.09 10 1005.7
20260506035046 8 359 4.8 11.3 0.23 1.47 1.07 10 1005.7
20260506034052 8 356 4.8 12.9 0.25 1.45 1.04 10 1005.8
20260506033044 8 347 4.8 14.5 0.30 1.45 1.02 10 1005.8
20260506032043 8 304 4.8 11.3 0.33 1.42 0.99 10 1005.8
20260506030043 8 346 4.8 12.9 0.33 1.37 0.94 10 1006.0
20260506025045 8 272 4.8 12.9 0.30 1.30 0.89 10 1006.0
20260506024044 8 354 6.4 12.9 0.28 1.27 0.84 10 1006.1
20260506023044 8 359 4.8 12.9 0.25 1.19 0.79 10 1006.1
20260506021045 8 215 4.8 11.3 0.20 1.09 0.66 10 1006.2
20260506020047 8 142 6.4 11.3 0.23 1.07 0.64 10 1006.2
20260506015045 8 1 6.4 14.5 0.20 1.02 0.61 10 1006.2
20260506014045 8 301 4.8 9.7 0.20 0.99 0.58 10 1006.2
20260506013045 8 360 6.4 14.5 0.23 0.99 0.56 10 1006.2
20260506012044 8 316 6.4 17.7 0.23 0.94 0.51 10 1006.3
20260506011044 8 1 6.4 14.5 0.23 0.89 0.48 10 1006.3
20260506005044 8 2 6.4 14.5 0.18 0.84 0.43 10 1006.4
20260506004045 8 5 6.4 16.1 0.18 0.81 0.41 10 1006.5
20260506003044 8 4 8.0 17.7 0.18 0.79 0.38 10 1006.6
20260506002046 8 278 6.4 12.9 0.15 0.76 0.33 10 1006.6
20260506001045 8 3 6.4 14.5 0.15 0.71 0.30 10 1006.8
20260505235046 8 8 6.4 14.5 0.13 0.66 0.23 10 1006.9
20260505234045 8 8 6.4 16.1 0.15 0.66 0.23 10 1006.9
20260505233046 8 86 6.4 17.7 0.15 0.64 0.23 10 1006.9
20260505232047 9 268 6.4 16.1 0.15 0.61 0.20 10 1007.0
20260505231046 9 7 4.8 12.9 0.15 0.61 0.18 10 1007.0
20260505230048 9 6 6.4 14.5 0.15 0.58 0.15 10 1007.1
20260505225049 9 212 6.4 14.5 0.15 0.56 0.15 10 1007.1
20260505224047 9 5 4.8 12.9 0.15 0.53 0.13 10 1007.1
20260505223048 9 13 6.4 16.1 0.15 0.51 0.10 10 1007.1
20260505222047 9 20 4.8 9.7 0.15 0.51 0.08 10 1007.2
20260505221047 9 28 4.8 11.3 0.13 0.46 0.05 10 1007.2